Lorain / Elyria, OH

4:34 PM EDT on October 20, 2017 (GMT -0400)
Lorain County Regional

Weather History for KLPR - October, 2013

Change the Weather History Date:

Wednesday, October 16, 2013

  Actual Average (KCLE) Record (KCLE)
Temperature  
Mean Temperature 59 °F -  
Max Temperature 69 °F 61 °F 83 °F (1962)
Min Temperature 48 °F 44 °F 29 °F (1944)
Degree Days  
Heating Degree Days 6    
Growing Degree Days 9 (Base 50)    
Moisture  
Dew Point 57 °F    
Average Humidity 81    
Maximum Humidity 94    
Minimum Humidity 54    
Precipitation  
Precipitation 0.07 in - - ()
Sea Level Pressure  
Sea Level Pressure 29.88 in    
Wind  
Wind Speed 9 mph (WSW)    
Max Wind Speed 13 mph    
Max Gust Speed 20 mph    
Visibility 9 miles    
Events Rain    
Averages and records for this station are not official NWS values.
T = Trace of Precipitation, MM = Missing Value Source: NWS Daily Summary

Daily Weather History Graph

Daily Weather History Graph

Search for Another Location

Airport or City:

Trip Planner

Search our weather history database for the weather conditions in past years. The results will help you decide how hot, cold, wet, or windy it might be!

Date:

Astronomy

Oct. 16, 2013 Rise Set
Actual Time 7:41 AM EDT 6:45 PM EDT
Civil Twilight 7:13 AM EDT 7:13 PM EDT
Nautical Twilight 6:41 AM EDT 7:45 PM EDT
Astronomical Twilight 6:09 AM EDT 8:17 PM EDT
Moon 5:25 PM EDT (10/16) 5:06 AM EDT (10/16)
Length of Visible Light 11h 59m
Length of Day
11h 03m
Waxing Gibbous, 94% of the Moon is Illuminated
Oct 16
Waxing Gibbous
Oct 18
Full
Oct 26
Last Quarter
Nov 3
New
Nov 10
First Quarter

Hourly Weather History & Observations

Time (EDT) Temp. Dew Point Humidity Pressure Visibility Wind Dir Wind Speed Gust Speed Precip Events Conditions
12:53 AM 64.0 °F 61.0 °F 90% 29.91 in 6.0 mi SSW 9.2 mph - 0.02 in   Overcast
1:27 AM 64.4 °F 60.8 °F 88% 29.91 in 6.0 mi South 10.4 mph - N/A   Overcast
1:53 AM 64.0 °F 61.0 °F 90% 29.90 in 8.0 mi SSW 10.4 mph - N/A   Overcast
2:00 AM 64.4 °F 60.8 °F 88% 29.91 in 8.0 mi SSW 9.2 mph - N/A   Overcast
2:53 AM 64.9 °F 61.0 °F 87% 29.90 in 8.0 mi SW 8.1 mph - N/A   Overcast
3:53 AM 64.0 °F 60.1 °F 87% 29.89 in 10.0 mi SW 5.8 mph - N/A   Overcast
4:53 AM 64.0 °F 60.1 °F 87% 29.89 in 10.0 mi SW 6.9 mph - 0.01 in   Overcast
5:53 AM 64.0 °F 60.1 °F 87% 29.88 in 9.0 mi SSW 5.8 mph - N/A   Overcast
6:53 AM 63.0 °F 60.1 °F 90% 29.88 in 7.0 mi SSW 6.9 mph - 0.01 in Rain Light Rain
7:26 AM 62.6 °F 60.8 °F 94% 29.88 in 7.0 mi SSW 6.9 mph - 0.00 in   Overcast
7:53 AM 63.0 °F 60.1 °F 90% 29.88 in 7.0 mi SSW 6.9 mph - 0.00 in Rain Light Rain
8:09 AM 62.6 °F 60.8 °F 94% 29.89 in 7.0 mi SSW 6.9 mph - 0.00 in Rain Light Rain
8:53 AM 63.0 °F 60.1 °F 90% 29.88 in 9.0 mi South 9.2 mph - 0.00 in   Overcast
9:53 AM 64.0 °F 61.0 °F 90% 29.88 in 10.0 mi South 9.2 mph - N/A   Mostly Cloudy
10:53 AM 66.9 °F 62.1 °F 84% 29.87 in 10.0 mi SW 8.1 mph - N/A   Mostly Cloudy
11:42 AM 66.2 °F 62.6 °F 88% 29.87 in 10.0 mi SSW 10.4 mph - N/A   Overcast
11:53 AM 66.9 °F 61.0 °F 81% 29.86 in 10.0 mi SW 12.7 mph - N/A   Overcast
12:06 PM 66.2 °F 60.8 °F 83% 29.87 in 10.0 mi SW 10.4 mph - N/A   Overcast
12:53 PM 68.0 °F 61.0 °F 78% 29.84 in 10.0 mi SSW 9.2 mph - N/A   Overcast
1:24 PM 66.2 °F 60.8 °F 83% 29.84 in 7.0 mi West 6.9 mph - 0.02 in   Overcast
1:42 PM 64.4 °F 62.6 °F 94% 29.84 in 6.0 mi West 8.1 mph - 0.02 in   Overcast
1:53 PM 64.0 °F 60.1 °F 87% 29.84 in 4.0 mi West 11.5 mph 17.3 mph 0.02 in   Overcast
2:44 PM 64.4 °F 59.0 °F 83% 29.84 in 8.0 mi West 9.2 mph 17.3 mph 0.01 in   Overcast
2:53 PM 64.9 °F 59.0 °F 81% 29.83 in 8.0 mi West 10.4 mph - 0.01 in   Overcast
3:04 PM 66.2 °F 57.2 °F 73% 29.84 in 10.0 mi West 12.7 mph 18.4 mph N/A   Overcast
3:31 PM 66.2 °F 55.4 °F 68% 29.84 in 10.0 mi WSW 10.4 mph - N/A   Scattered Clouds
3:53 PM 66.9 °F 55.9 °F 68% 29.83 in 10.0 mi West 8.1 mph - N/A   Partly Cloudy
4:53 PM 66.0 °F 48.9 °F 54% 29.84 in 10.0 mi WNW 11.5 mph 19.6 mph N/A   Overcast
5:53 PM 62.1 °F 46.9 °F 58% 29.86 in 10.0 mi WNW 9.2 mph - N/A   Overcast
6:53 PM 59.0 °F 46.0 °F 62% 29.88 in 10.0 mi WNW 4.6 mph - N/A   Scattered Clouds
7:53 PM 57.0 °F 45.0 °F 64% 29.90 in 10.0 mi WNW 6.9 mph - N/A   Clear
8:53 PM 53.1 °F 44.1 °F 71% 29.92 in 10.0 mi WNW 6.9 mph - N/A   Clear
9:53 PM 52.0 °F 44.1 °F 74% 29.93 in 10.0 mi West 4.6 mph - N/A   Clear
10:53 PM 50.0 °F 43.0 °F 77% 29.94 in 10.0 mi WSW 4.6 mph - N/A   Clear
11:53 PM 48.0 °F 43.0 °F 83% 29.94 in 10.0 mi WSW 5.8 mph - N/A   Clear